This demonstration page uses our WeatherBlox Daily Observations layout. Learn more.

Left ArrowRight Arrow

Hourly Observations for March 30, 2020

Temp ( °F °C ) Dew Point ( °F °C ) Humidity (%) Winds ( mph kmh ) Pressure ( in mb ) Visibility ( mi km ) Precip ( " mm )
12:51 am 00:51 Clear 55 12.8 19 -7.2 24 24 WNW 15 24 29.88 1012 10 16 0.00 0.00
1:51 am 01:51 Clear 54 12.2 21 -6.1 28 28 WNW 21 33 29.88 1012 10 16 0.00 0.00
2:51 am 02:51 Clear 51 10.6 22 -5.6 32 32 WNW 14 22 29.91 1013 10 16 0.00 0.00
3:51 am 03:51 Clear 51 10.6 24 -4.4 35 35 NW 12 19 29.92 1013 10 16 0.00 0.00
4:51 am 04:51 Clear 48 8.9 25 -3.9 41 41 NW 12 19 29.95 1014 10 16 0.00 0.00
5:51 am 05:51 Clear 45 7.2 26 -3.3 48 48 N 8 13 29.98 1015 10 16 0.00 0.00
6:51 am 06:51 Sunny 50 10 28 -2.2 43 43 NNW 7 11 30.01 1016 10 16 0.00 0.00
7:51 am 07:51 Sunny 58 14.4 27 -2.8 31 31 NW 9 15 30.05 1018 10 16 0.00 0.00
8:51 am 08:51 Sunny 60 15.6 27 -2.8 28 28 NW 12 19 30.07 1018 10 16 0.00 0.00
9:51 am 09:51 Sunny 62 16.7 26 -3.3 25 25 WNW 15 24 30.07 1018 10 16 0.00 0.00
10:51 am 10:51 Sunny 66 18.9 26 -3.3 22 22 WNW 18 30 30.07 1018 10 16 0.00 0.00
11:51 am 11:51 Sunny 69 20.6 26 -3.3 20 20 WNW 15 24 30.05 1018 10 16 0.00 0.00
12:51 pm 12:51 Sunny 71 21.7 24 -4.4 17 17 W 14 22 30.01 1016 10 16 0.00 0.00
1:51 pm 13:51 Sunny 72 22.2 26 -3.3 18 18 WNW 22 35 29.99 1016 10 16 0.00 0.00
2:51 pm 14:51 Sunny 72 22.2 26 -3.3 18 18 W 21 33 29.97 1015 10 16 0.00 0.00
3:51 pm 15:51 Sunny 72 22.2 26 -3.3 18 18 W 16 26 29.97 1015 10 16 0.00 0.00
4:51 pm 16:51 Sunny 72 22.2 26 -3.3 18 18 NW 17 28 29.98 1015 10 16 0.00 0.00
5:51 pm 17:51 Sunny 70 21.1 22 -5.6 16 16 NW 15 24 29.99 1016 10 16 0.00 0.00
6:51 pm 18:51 Clear 65 18.3 25 -3.9 22 22 NNW 9 15 30.01 1016 10 16 0.00 0.00
7:51 pm 19:51 Clear 60 15.6 26 -3.3 27 27 WNW 8 13 30.04 1017 10 16 0.00 0.00
8:51 pm 20:51 Clear 58 14.4 28 -2.2 32 32 WNW 9 15 30.07 1018 10 16 0.00 0.00
9:51 pm 21:51 Clear 55 12.8 29 -1.7 37 37 NNW 10 17 30.07 1018 10 16 0.00 0.00
10:51 pm 22:51 Clear 54 12.2 30 -1.1 40 40 NW 7 11 30.07 1018 10 16 0.00 0.00
11:51 pm 23:51 Clear 48 8.9 30 -1.1 50 50 Calm 30.09 1019 10 16 0.00 0.00

Powered by AerisWeather